Hatteras, NC

3:35 PM EDT on October 18, 2019 (GMT -0400)
Mitchell

Weather History for KHSE - September, 2019

Change the Weather History Date:

Thursday, September 19, 2019

  Actual Average Record
Temperature  
Mean Temperature - 74 °F  
Max Temperature - 79 °F 90 °F (1978)
Min Temperature - 68 °F 50 °F (1990)
Moisture  
Dew Point -    
Average Humidity    
Maximum Humidity    
Minimum Humidity    
Precipitation  
Precipitation 0.01 in 0.20 in 5.46 in (1989)
Month to date precipitation 3.11 4.17  
Year to date precipitation 41.86 41.36  
Snow  
Snow - - - ()
Month to date snowfall 0.0  
Since 1 July snowfall 0.0  
Snow Depth 0.00 in    
Sea Level Pressure  
Sea Level Pressure 30.21 in    
Wind  
Wind Speed 9 mph ()    
Max Wind Speed 14 mph    
Max Gust Speed 31 mph    
Visibility 10.0 miles    
Events      
T = Trace of Precipitation, MM = Missing Value Source: Averaged Metar Reports

Daily Weather History Graph

Daily Weather History Graph

Search for Another Location

Airport or City:

Astronomy

Sep. 19, 2019 Rise Set
Actual Time 6:48 AM EDT 7:03 PM EDT
Civil Twilight 6:22 AM EDT 7:29 PM EDT
Nautical Twilight 5:52 AM EDT 7:58 PM EDT
Astronomical Twilight 5:22 AM EDT 8:29 PM EDT
Moon 10:22 PM EDT (9/19) 11:38 AM EDT (9/19)
Length of Visible Light 13h 06m
Length of Day
12h 15m
Waning Gibbous, 74% of the Moon is Illuminated
Sep 19
Waning Gibbous
Sep 21
Last Quarter
Sep 28
New
Oct 5
First Quarter
Oct 13
Full

Hourly Weather History & Observations

Time (EDT) Temp. Dew Point Humidity Pressure Visibility Wind Dir Wind Speed Gust Speed Precip Events Conditions
12:51 AM - - N/A% 30.14 in 10.0 mi NE 13.8 mph 25.3 mph N/A   Partly Cloudy
1:51 AM - - N/A% 30.15 in 10.0 mi NNE 11.5 mph 24.2 mph N/A   Overcast
2:51 AM - - N/A% 30.14 in 10.0 mi NE 8.1 mph 19.6 mph 0.00 in   Overcast
3:51 AM - - N/A% 30.15 in 10.0 mi NE 10.4 mph 21.9 mph 0.01 in   Overcast
4:51 AM - - N/A% 30.15 in 10.0 mi NE 11.5 mph 21.9 mph N/A   Overcast
5:51 AM - - N/A% 30.16 in 10.0 mi Variable 6.9 mph 19.6 mph N/A   Overcast
6:51 AM - - N/A% 30.18 in 10.0 mi NE 11.5 mph 24.2 mph N/A   Overcast
7:51 AM - - N/A% 30.19 in 10.0 mi NE 10.4 mph 24.2 mph N/A   Clear
8:51 AM - - N/A% 30.19 in 10.0 mi NNE 11.5 mph 23.0 mph N/A   Clear
9:51 AM - - N/A% 30.22 in 10.0 mi NE 8.1 mph 20.7 mph N/A   Scattered Clouds
10:51 AM - - N/A% 30.22 in 10.0 mi NNE 12.7 mph 24.2 mph N/A   Partly Cloudy
11:51 AM - - N/A% 30.22 in 10.0 mi NNE 10.4 mph 24.2 mph N/A   Overcast
12:51 PM - - N/A% 30.22 in 10.0 mi NNE 11.5 mph 23.0 mph N/A   Overcast
1:51 PM - - N/A% 30.22 in 10.0 mi Variable 6.9 mph 24.2 mph N/A   Overcast
2:51 PM - - N/A% 30.22 in 10.0 mi NNE 10.4 mph 21.9 mph N/A   Overcast
3:51 PM - - N/A% 30.22 in 10.0 mi NNE 12.7 mph 23.0 mph N/A   Overcast
4:51 PM - - N/A% 30.22 in 10.0 mi NNE 12.7 mph 20.7 mph N/A   Overcast
5:51 PM - - N/A% 30.23 in 10.0 mi NNE 10.4 mph 25.3 mph N/A   Mostly Cloudy
6:51 PM - - N/A% 30.23 in 10.0 mi NNE 8.1 mph 18.4 mph N/A   Clear
7:51 PM - - N/A% 30.23 in 10.0 mi NNE 13.8 mph 21.9 mph N/A   Clear
8:51 PM - - N/A% 30.25 in 10.0 mi NE 9.2 mph 18.4 mph N/A   Clear
9:51 PM - - N/A% 30.26 in 10.0 mi NE 10.4 mph 19.6 mph N/A   Clear
10:51 PM - - N/A% 30.27 in 10.0 mi NE 10.4 mph 19.6 mph N/A   Clear
11:51 PM - - N/A% 30.25 in 10.0 mi NE 6.9 mph - N/A   Clear